Weather History for Lucknow, India

Change the Weather History Date:

Monday, November 26, 2012

  Actual Average Record
Temperature  
Mean Temperature 64 °F -  
Max Temperature 79 °F 69 °F 83 °F (2013)
Min Temperature 50 °F 52 °F 39 °F (2005)
Growing Degree Days 14 (Base 50)    
Moisture  
Dew Point 48 °F    
Average Humidity 53    
Maximum Humidity 82    
Minimum Humidity 18    
Precipitation  
Precipitation 0.00 in - - ()
Sea Level Pressure  
Sea Level Pressure 29.97 in    
Wind  
Wind Speed 3 mph ()    
Max Wind Speed 12 mph    
Max Gust Speed -    
Visibility 1.4 miles    
Events Fog    
Averages and records for this station are not official NWS values.
T = Trace of Precipitation, MM = Missing Value Source: Averaged Metar Reports

Daily Weather History Graph

Daily Weather History Graph

Search for Another Location

Airport:

Trip Planner

Search our weather history database for the weather conditions in past years. The results will help you decide how hot, cold, wet, or windy it might be!

Date:

Astronomy

Nov. 26, 2012 Rise Set
Actual Time 6:34 AM IST 5:13 PM IST
Civil Twilight 6:09 AM IST 5:38 PM IST
Nautical Twilight 5:40 AM IST 6:06 PM IST
Astronomical Twilight 5:12 AM IST 6:34 PM IST
Moon 3:42 PM IST (11/26) 4:25 AM IST (11/26)
Length of Visible Light 11h 28m
Length of Day
10h 38m
Waxing Gibbous, 95% of the Moon is Illuminated
Nov 26
Waxing Gibbous
Nov 28
Full
Dec 6
Last Quarter
Dec 13
New
Dec 20
First Quarter

Hourly Weather History & Observations

Time (IST) Temp. Dew Point Humidity Pressure Visibility Wind Dir Wind Speed Gust Speed Precip Events Conditions
2:30 AM 58 °F 50 °F 67% 29.95 in 0 mi Calm Calm - -   Mist
3:00 AM 59.0 °F 50.0 °F 72% 29.92 in 0.5 mi Calm Calm - N/A   Mist
4:00 AM 57.2 °F 50.0 °F 77% 29.92 in 0.5 mi Calm Calm - N/A   Mist
5:00 AM 55.4 °F 48.2 °F 77% 29.92 in 0.5 mi Calm Calm - N/A   Mist
5:30 AM 56 °F 50 °F 73% 29.97 in 0 mi Calm Calm - -   Mist
6:00 AM 55.4 °F 50.0 °F 82% 29.95 in 0.5 mi Calm Calm - N/A   Mist
6:30 AM 55.4 °F 50.0 °F 82% 29.98 in 0.5 mi WSW 3.5 mph - N/A   Mist
7:00 AM 55.4 °F 48.2 °F 77% 29.98 in 0.5 mi WSW 3.5 mph - N/A Fog Shallow Fog
7:30 AM 57.2 °F 48.2 °F 72% 30.01 in 0.5 mi Variable 2.3 mph - N/A Fog Shallow Fog
8:00 AM 57.2 °F 48.2 °F 72% 30.01 in 0.5 mi Calm Calm - N/A Fog Shallow Fog
8:30 AM 60 °F 50 °F 61% 30.05 in 1 mi WSW 3.5 mph - -   Mist
8:30 AM 60.8 °F 50.0 °F 68% 30.01 in 0.6 mi WSW 3.5 mph - N/A   Mist
9:00 AM 62.6 °F 51.8 °F 68% 30.04 in 0.6 mi WNW 3.5 mph - N/A   Mist
10:00 AM 69.8 °F 50.0 °F 49% 30.04 in 0.9 mi NW 6.9 mph - N/A   Haze
10:30 AM 71.6 °F 48.2 °F 43% 30.04 in 1.2 mi NW 4.6 mph - N/A   Haze
11:00 AM 73.4 °F 48.2 °F 41% 30.04 in 1.2 mi NW 4.6 mph - N/A   Haze
11:30 AM 74 °F 46 °F 26% 30.02 in 1 mi NW 6.9 mph - -   Haze
11:30 AM 73.4 °F 46.4 °F 38% 30.01 in 1.6 mi NW 6.9 mph - N/A   Haze
12:30 PM 78.8 °F 46.4 °F 32% 29.98 in 2.2 mi West 6.9 mph - N/A   Haze
1:00 PM 78.8 °F 46.4 °F 32% 29.98 in 2.5 mi NW 6.9 mph - N/A   Haze
1:30 PM 78.8 °F 46.4 °F 32% 29.95 in 2.5 mi West 9.2 mph - N/A   Haze
2:00 PM 78.8 °F 46.4 °F 32% 29.95 in 2.5 mi WNW 11.5 mph - N/A   Haze
2:30 PM 79 °F 43 °F 18% 29.93 in 2 mi WNW 9.2 mph - -   Haze
2:30 PM 78.8 °F 42.8 °F 28% 29.92 in 2.5 mi WNW 9.2 mph - N/A   Haze
3:00 PM 78.8 °F 42.8 °F 28% 29.92 in 2.5 mi WNW 11.5 mph - N/A   Haze
3:30 PM 78.8 °F 42.8 °F 28% 29.92 in 2.5 mi WNW 9.2 mph - N/A   Haze
4:00 PM 77.0 °F 44.6 °F 32% 29.92 in 2.5 mi WNW 9.2 mph - N/A   Haze
5:00 PM 73.4 °F 46.4 °F 38% 29.89 in 2.5 mi WNW 4.6 mph - N/A   Haze
5:30 PM 73.4 °F 48.2 °F 41% 29.89 in 2.2 mi West 3.5 mph - N/A   Haze
6:00 PM 68.0 °F 48.2 °F 49% 29.92 in 2.2 mi SW 3.5 mph - N/A   Haze
7:30 PM 64.4 °F 46.4 °F 52% 29.95 in 1.9 mi Variable 2.3 mph - N/A   Haze
8:00 PM 64.4 °F 48.2 °F 56% 29.95 in 1.9 mi West 4.6 mph - N/A   Haze
8:30 PM 62 °F 50 °F 55% 29.97 in 1 mi WSW 4.6 mph - -   Haze
8:30 PM 62.6 °F 50.0 °F 63% 29.95 in 1.9 mi WSW 4.6 mph - N/A   Haze
9:00 PM 60.8 °F 50.0 °F 68% 29.95 in 1.9 mi WSW 3.5 mph - N/A   Haze
10:00 PM 60.8 °F 50.0 °F 68% 29.95 in 1.9 mi Calm Calm - N/A   Haze
11:00 PM 60.8 °F 48.2 °F 63% 29.95 in 1.9 mi Variable 2.3 mph - N/A   Haze
11:30 PM 59 °F 49 °F 59% 29.97 in 1 mi 2.3 mph - -   Haze